Flag for U.S.A. Weather past 2 weeks in Fresno, California, U.S.A.

Now
59 °F

Clear.


Feels Like: 58 °F
Forecast: 60 / 86 °F
Wind: 6 mph from Northwest

Location: Fresno Air Terminal

Current Time: May 25, 2015 at 5:49:13 AM

Latest Report: May 25, 2015 at 4:53 AM


Visibility: 10 mi

Pressure: 29.87 "Hg

Humidity: 75%

Dew point: 51 °F

Location of FresnoLocation

Historic Weather in Fresno — Graph

°F

Fresno temperature yesterday

Maximum temperature yesterday: 81 °F (at 3:53 PM)
Minimum temperature yesterday: 55 °F (at 4:53 AM)
Average temperature yesterday: 69 °F

Past Weeks' High & Low Weather Summary

 TemperatureHumidityPressure
High85 °F (May 10, 4:53 PM)93% (May 15, 3:53 AM)30.07 "Hg (May 15, 3:53 AM)
Low51 °F (May 13, 5:53 AM)12% (May 12, 4:53 PM)29.73 "Hg (May 14, 4:53 PM)
Average65 °F51%29.92 "Hg
* Reported May 10 4:53 AM — May 25 4:53 AM, Fresno, Weather by CustomWeather, © 2015

Note: Actual official high and low records may vary slightly from our data, if they occured in-between our weather recording intervals... More about our weather records

Advertising

Fresno weather history for previous 24 hours

 ConditionsComfort  
Time TempWeatherWind HumidityBarometerVisibility
4:53 AM
Mon, May 25
59 °FClear.6 mph75%29.87 "Hg10 mi
3:53 AM60 °FClear.7 mph72%29.87 "Hg10 mi
2:53 AM62 °FClear.8 mph67%29.87 "Hg10 mi
1:53 AM63 °FClear.10 mph65%29.87 "Hg10 mi
12:53 AM65 °FClear.7 mph61%29.88 "Hg10 mi
11:53 PM
Sun, May 24
68 °FClear.10 mph53%29.87 "Hg10 mi
10:53 PM73 °FClear.8 mph43%29.87 "Hg10 mi
9:53 PM75 °FClear.6 mph43%29.86 "Hg10 mi
8:53 PM77 °FPassing clouds.3 mph40%29.85 "Hg10 mi
7:53 PM79 °FPassing clouds.6 mph36%29.86 "Hg10 mi
6:53 PM80 °FPassing clouds.8 mph35%29.85 "Hg10 mi
5:53 PM81 °FPassing clouds.7 mph34%29.86 "Hg10 mi
4:53 PM81 °FPassing clouds.5 mph33%29.87 "Hg10 mi
3:53 PM81 °FPassing clouds.9 mph34%29.89 "Hg10 mi
2:53 PM80 °FPassing clouds.6 mph35%29.92 "Hg10 mi
1:53 PM77 °FPassing clouds.6 mph39%29.93 "Hg10 mi
12:53 PM76 °FPassing clouds.3 mph42%29.96 "Hg10 mi
11:53 AM74 °FPassing clouds.6 mph45%29.98 "Hg10 mi
10:53 AM70 °FPassing clouds.No wind49%29.99 "Hg10 mi
9:53 AM66 °FSunny.7 mph56%29.99 "Hg10 mi
8:53 AM63 °FSunny.5 mph60%29.99 "Hg10 mi
7:53 AM60 °FSunny.6 mph67%29.99 "Hg10 mi
6:53 AM57 °FSunny.No wind72%29.98 "Hg10 mi
5:53 AM55 °FPassing clouds.3 mph77%29.97 "Hg10 mi
Weather by CustomWeather, © 2015

See weather overviewHow to use our weather pages